Weather reports worldwide

Advertisment
Le Talut, France (7207): temperature & dewpoint: 14.10.2020 16:00:00 - 20.10.2020 16:00:00 (CEST)Le Talut, France (7207): wind speed & gusts: 14.10.2020 16:00:00 - 20.10.2020 16:00:00 (CEST)Le Talut, France (7207): wind direction: 14.10.2020 16:00:00 - 20.10.2020 16:00:00 (CEST)Le Talut, France (7207): reduced air pressure: 14.10.2020 16:00:00 - 20.10.2020 16:00:00 (CEST)Le Talut, France (7207): visibility: 14.10.2020 16:00:00 - 20.10.2020 16:00:00 (CEST)Le Talut, France (7207): precipitation: 14.10.2020 16:00:00 - 20.10.2020 16:00:00 (CEST)
Date & Time tt [°C] td [°C] ff [km/h] ff [kn] fx [km/h] fx [kn] dd ppp [hPa] vv [km] rr [mm]
20.10.2020 16:00:00 - - - - - - - - - -
20.10.2020 15:00:00 16,0 14,5 21 11 35 19 S 1002,7 - 0,0
20.10.2020 14:00:00 16,1 14,5 23 12 34 19 SSE 1003,6 - 0,0
20.10.2020 13:00:00 16,7 14,3 23 12 36 19 S 1004,2 - 0,0
20.10.2020 12:00:00 16,1 13,9 24 13 38 20 S 1004,5 - 0,0
20.10.2020 11:00:00 16,0 14,0 28 15 39 21 S 1004,1 15 0,0
20.10.2020 10:00:00 15,9 14,1 26 14 42 23 S 1004,6 - 0,0
20.10.2020 09:00:00 15,8 14,3 24 13 36 19 S 1004,0 - 0,0
20.10.2020 08:00:00 15,8 14,3 28 15 39 21 S 1004,0 - 0,0
20.10.2020 07:00:00 15,9 14,4 25 14 37 20 S 1003,9 - 0,0
20.10.2020 06:00:00 16,1 14,5 27 15 41 22 SSW 1003,6 - 0,0
20.10.2020 05:00:00 16,3 14,1 29 16 48 26 S 1003,7 - 0,0
20.10.2020 04:00:00 16,7 14,0 34 18 47 25 SSW 1003,6 - 0,0
20.10.2020 03:00:00 16,0 13,8 29 16 41 22 S 1003,8 - 0,0
20.10.2020 02:00:00 15,9 14,1 31 17 44 24 S 1004,3 - 0,0
20.10.2020 01:00:00 15,8 14,2 22 12 31 17 S 1004,6 - 0,0
20.10.2020 00:00:00 15,9 13,9 22 12 37 20 S 1004,8 - 0,0
19.10.2020 23:00:00 16,0 13,8 28 15 52 28 S 1005,1 - 0,2
19.10.2020 22:00:00 16,6 13,3 39 21 58 31 S 1005,4 - 0,0
19.10.2020 21:00:00 16,3 13,0 40 22 63 34 SE 1004,9 - 0,0
19.10.2020 20:00:00 16,0 12,7 41 22 66 36 SE 1005,4 - 0,0
19.10.2020 19:00:00 15,5 12,1 35 19 72 39 SE 1005,6 - 0,0
19.10.2020 18:00:00 15,2 11,8 31 17 64 35 SE 1006,9 - 0,0
19.10.2020 17:00:00 14,9 11,1 30 16 71 38 SE 1007,7 18 0,0
19.10.2020 16:00:00 14,5 11,1 22 12 59 32 ESE 1009,0 - 0,0
19.10.2020 15:00:00 14,7 10,9 24 13 60 33 ESE 1009,8 - 0,0
19.10.2020 14:00:00 14,5 11,1 22 12 53 29 ESE 1011,4 20 0,0
19.10.2020 13:00:00 14,6 11,4 19 10 50 27 ESE 1012,5 - 0,0
19.10.2020 12:00:00 14,0 10,8 19 10 50 27 ESE 1013,4 - 0,0
19.10.2020 11:00:00 13,2 10,4 22 12 50 27 E 1014,5 20 0,0
19.10.2020 10:00:00 13,2 10,6 16 9 46 25 ESE 1015,4 - 0,0
19.10.2020 09:00:00 12,9 10,8 18 10 49 27 E 1015,3 - 0,0
19.10.2020 08:00:00 12,9 10,8 14 8 43 23 ESE 1015,6 - 0,0
19.10.2020 07:00:00 13,0 10,5 14 8 40 22 ESE 1016,7 - 0,0
19.10.2020 06:00:00 13,1 10,3 21 11 41 22 SE 1017,4 - 0,0
19.10.2020 05:00:00 13,2 10,0 13 7 39 21 ESE 1017,9 - 0,0
19.10.2020 04:00:00 13,2 9,3 17 9 39 21 SE 1019,1 - 0,0
19.10.2020 03:00:00 13,4 9,6 19 10 37 20 E 1019,5 - 0,0
19.10.2020 02:00:00 13,4 9,4 18 10 39 21 E 1020,3 - 0,0
19.10.2020 01:00:00 13,4 9,1 14 7 39 21 ESE 1020,8 - 0,0
19.10.2020 00:00:00 13,3 10,1 11 6 28 15 E 1021,4 - 0,0
18.10.2020 23:00:00 11,3 7,8 16 9 21 11 E 1021,3 - 0,0
18.10.2020 22:00:00 11,0 7,3 16 8 20 11 E 1021,6 - 0,0
18.10.2020 21:00:00 10,8 6,0 8 4 19 11 E 1022,4 - 0,0
18.10.2020 20:00:00 12,7 7,2 7 4 20 11 ESE 1022,3 - 0,0
18.10.2020 19:00:00 12,7 6,5 8 5 23 12 E 1022,3 - 0,0
18.10.2020 18:00:00 13,1 6,9 13 7 28 15 SE 1022,4 - 0,0
18.10.2020 17:00:00 13,5 7,5 16 9 34 19 SE 1022,8 20 0,0
18.10.2020 16:00:00 14,0 7,1 11 6 30 16 ESE 1023,0 - 0,0
18.10.2020 15:00:00 14,3 7,8 12 6 31 17 ESE 1023,6 - 0,0
18.10.2020 14:00:00 14,2 7,7 12 6 34 19 ESE 1023,8 - 0,0
18.10.2020 13:00:00 14,1 7,4 11 6 34 18 ESE 1024,4 - 0,0
18.10.2020 12:00:00 13,7 7,9 13 7 34 19 ESE 1024,3 - 0,0
18.10.2020 11:00:00 13,4 8,0 13 7 30 16 ESE 1024,1 20 0,0
18.10.2020 10:00:00 13,2 8,5 13 7 39 21 ESE 1023,7 - 0,0
18.10.2020 09:00:00 12,5 8,2 15 8 36 19 E 1023,1 - 0,0
18.10.2020 08:00:00 12,4 8,3 15 8 41 22 E 1023,0 - 0,0
18.10.2020 07:00:00 12,3 8,4 12 6 37 20 ESE 1022,8 - 0,0
18.10.2020 06:00:00 12,1 7,8 18 10 39 21 E 1022,2 - 0,0
18.10.2020 05:00:00 12,3 8,2 14 8 34 19 E 1022,3 - 0,0
18.10.2020 04:00:00 12,5 8,2 15 8 35 19 E 1022,6 - 0,0
18.10.2020 03:00:00 12,6 8,1 15 8 34 18 E 1022,5 - 0,0
18.10.2020 02:00:00 12,7 8,0 16 9 37 20 E 1022,3 - 0,0
18.10.2020 01:00:00 12,7 8,4 14 8 32 17 E 1022,4 - 0,0
18.10.2020 00:00:00 12,7 7,8 13 7 40 22 ESE 1022,3 - 0,0
17.10.2020 23:00:00 11,5 7,6 9 5 12 6 ENE 1022,0 - 0,0
17.10.2020 22:00:00 11,0 7,1 10 5 14 8 ENE 1021,7 - 0,0
17.10.2020 21:00:00 11,1 7,0 11 6 13 7 ENE 1021,5 - 0,0
17.10.2020 20:00:00 10,8 6,7 11 6 24 13 ENE 1021,0 - 0,0
17.10.2020 19:00:00 12,5 7,6 9 5 23 13 ESE 1020,4 - 0,0
17.10.2020 18:00:00 13,5 7,5 8 4 29 16 ESE 1020,1 - 0,0
17.10.2020 17:00:00 13,8 7,3 11 6 31 17 ESE 1019,9 20 0,0
17.10.2020 16:00:00 14,0 7,3 13 7 33 18 ESE 1019,9 - 0,0
17.10.2020 15:00:00 13,8 7,8 12 6 37 20 ESE 1020,2 - 0,0
17.10.2020 14:00:00 13,4 8,2 16 9 38 20 E 1020,2 20 0,0
17.10.2020 13:00:00 13,2 7,2 14 8 39 21 E 1020,3 - 0,0
17.10.2020 12:00:00 12,2 6,0 19 11 45 25 SE 1020,4 - 0,0
17.10.2020 11:00:00 12,0 5,8 18 10 47 25 SE 1020,0 19 0,0
17.10.2020 10:00:00 11,7 5,1 19 10 46 25 ESE 1019,7 - 0,0
17.10.2020 09:00:00 11,2 5,3 14 8 39 21 ESE 1019,3 - 0,0
17.10.2020 08:00:00 11,2 5,5 13 7 37 20 ESE 1019,0 - 0,0
17.10.2020 07:00:00 11,4 5,7 16 9 38 20 ESE 1019,2 - 0,0
17.10.2020 06:00:00 11,4 5,5 14 7 40 21 ESE 1019,4 - 0,0
17.10.2020 05:00:00 11,3 5,4 16 9 41 22 SE 1019,6 - 0,0
17.10.2020 04:00:00 11,5 5,6 19 10 43 23 ESE 1020,1 - 0,0
17.10.2020 03:00:00 11,6 5,0 17 9 38 21 E 1020,5 - 0,0
17.10.2020 02:00:00 11,5 4,9 15 8 37 20 E 1020,7 - 0,0
17.10.2020 01:00:00 9,9 4,3 18 10 27 15 E 1021,1 - 0,0
17.10.2020 00:00:00 9,7 4,1 18 10 25 14 E 1021,4 - 0,0
16.10.2020 23:00:00 9,6 4,6 16 9 24 13 E 1021,7 - 0,0
16.10.2020 22:00:00 10,5 5,9 15 8 22 12 E 1021,7 - 0,0
16.10.2020 21:00:00 10,0 5,8 10 6 13 7 ENE 1022,1 - 0,0
16.10.2020 20:00:00 10,7 5,4 9 5 11 6 NE 1022,1 - 0,0
16.10.2020 19:00:00 12,1 5,9 6 3 19 10 NNE 1021,8 - 0,0
16.10.2020 18:00:00 13,8 6,6 5 3 16 8 ESE 1021,7 - 0,0
16.10.2020 17:00:00 13,2 6,3 9 5 24 13 SE 1022,0 20 0,0
16.10.2020 16:00:00 13,6 6,2 13 7 23 12 SE 1022,2 - 0,0
16.10.2020 15:00:00 14,0 6,8 7 4 18 10 SE 1022,4 - 0,0
16.10.2020 14:00:00 13,6 7,1 10 6 24 13 SE 1022,8 - 0,0
16.10.2020 13:00:00 13,7 6,5 8 4 22 12 E 1023,4 - 0,0
16.10.2020 12:00:00 13,6 8,2 10 5 22 12 NE 1023,5 - 0,0
16.10.2020 11:00:00 12,4 9,0 11 6 21 12 ENE 1023,5 25 0,0
16.10.2020 10:00:00 10,9 8,6 7 4 15 8 NE 1023,6 - 0,0
16.10.2020 09:00:00 9,0 7,3 10 5 16 9 ENE 1023,1 - 0,0
16.10.2020 08:00:00 8,7 6,8 12 7 19 11 ENE 1023,2 - 0,0
16.10.2020 07:00:00 9,2 7,5 16 8 18 10 NE 1023,3 - 0,0
16.10.2020 06:00:00 9,3 7,7 13 7 16 9 ENE 1023,2 - 0,0
16.10.2020 05:00:00 9,1 7,4 14 8 19 11 NE 1023,3 - 0,0
16.10.2020 04:00:00 8,7 7,3 17 9 21 11 NE 1023,8 - 0,0
16.10.2020 03:00:00 8,7 7,1 19 10 23 12 NNE 1023,9 - 0,0
16.10.2020 02:00:00 8,3 6,8 14 8 19 10 NNE 1023,8 - 0,0
16.10.2020 01:00:00 8,8 6,8 14 8 19 11 N 1023,7 - 0,0
16.10.2020 00:00:00 9,3 6,9 13 7 21 11 N 1023,9 - 0,0
15.10.2020 23:00:00 9,7 6,4 14 7 22 12 N 1023,9 - 0,0
15.10.2020 22:00:00 9,9 6,1 12 6 23 12 NNE 1023,5 - 0,0
15.10.2020 21:00:00 11,6 6,5 14 7 26 14 N 1023,3 - 0,0
15.10.2020 20:00:00 12,4 6,0 15 8 29 16 NNE 1022,9 - 0,0
15.10.2020 19:00:00 12,9 5,1 16 8 34 19 NNE 1022,5 - 0,0
15.10.2020 18:00:00 14,0 5,6 20 11 36 20 NNE 1022,2 - 0,0
15.10.2020 17:00:00 15,2 5,1 24 13 40 22 NE 1022,0 20 0,0
15.10.2020 16:00:00 15,2 5,9 24 13 41 22 NNE 1021,9 - 0,0
15.10.2020 15:00:00 15,4 6,1 24 13 40 21 NNE 1021,8 - 0,0
15.10.2020 14:00:00 14,5 6,6 21 12 41 22 N 1022,2 20 0,0
15.10.2020 13:00:00 13,7 7,9 24 13 41 22 N 1022,3 - 0,0
15.10.2020 12:00:00 13,2 7,6 24 13 36 19 N 1022,2 - 0,0
15.10.2020 11:00:00 12,6 8,3 19 10 31 17 N 1022,3 20 0,0
15.10.2020 10:00:00 10,8 8,2 18 10 29 15 N 1021,9 - 0,0
15.10.2020 09:00:00 9,8 7,4 16 9 29 16 N 1021,4 - 0,0
15.10.2020 08:00:00 9,2 7,1 14 8 25 14 N 1021,2 6 0,0
15.10.2020 07:00:00 9,4 7,2 19 10 28 15 NNE 1020,9 - 0,0
15.10.2020 06:00:00 10,0 7,6 19 10 29 15 NE 1020,6 - 0,0
15.10.2020 05:00:00 9,8 7,9 16 9 25 13 NNE 1020,7 - 0,0
15.10.2020 04:00:00 9,3 7,2 15 8 27 15 NNE 1021,0 - 0,0
15.10.2020 03:00:00 9,5 7,1 16 9 27 15 NNE 1020,9 - 0,0
15.10.2020 02:00:00 9,8 7,6 21 12 29 16 NNE 1020,6 - 0,0
15.10.2020 01:00:00 10,0 7,2 20 11 31 17 NNE 1020,3 - 0,0
15.10.2020 00:00:00 9,1 7,0 15 8 21 12 NNE 1020,1 - 0,0
14.10.2020 23:00:00 9,2 6,6 13 7 27 15 N 1019,9 - 0,0
14.10.2020 22:00:00 10,3 7,2 16 8 36 19 NNE 1019,4 - 0,0
14.10.2020 21:00:00 10,9 6,6 19 10 35 19 NE 1019,2 - 0,0
14.10.2020 20:00:00 11,7 7,4 19 10 34 19 NE 1018,5 - 0,0
14.10.2020 19:00:00 12,3 5,7 9 5 23 13 NNE 1017,7 - 0,0
14.10.2020 18:00:00 13,8 6,4 14 7 29 16 N 1017,2 - 0,0
14.10.2020 17:00:00 14,3 6,6 18 10 32 17 NNE 1016,8 25 0,0
14.10.2020 16:00:00 14,1 6,2 19 11 32 18 NNE 1016,6 - 0,0

tt = temperature
td = dewpoint
ff = wind speed
fx = gusts
dd = wind direction
ppp = reduced air pressure
vv = visibility
rr = precipitation

Next stations